www.pogodaiklimat.ru

Погода и климат >> Архив погоды >> Канада >> Baker Lake Climate


ПОГОДА в Baker Lake Climate

  • Прогноз погоды в Baker Lake Climate
  • Монитор погоды в Baker Lake Climate
  • Климат города

АРХИВ ПОГОДЫ в Baker Lake Climate

Время (UTC), дата Ветер
(напр.,м/с)
 
Видим.   Явления Облачность Т
(С)
Тd
(С)
f
(%)
Тe
(С)
Тes
(С)
Комфортность P
(гПа)
Po
(гПа)
Тmin
(С)
Tmax
(С)
R
(мм)
R24
(мм)
S
(см)
03 19.09 З 2 н/о н/о -5.5 -7.1 88 -10 -10 1009.1 1002.5
06 19.09 З 4 н/о н/о -3.9 -6.0 85 -10 -10 1008.5 1001.9 -6.4 +4.0 13
09 19.09 З 5 н/о н/о -4.9 -7.2 84 -12 -12 1008.4 1001.8
12 19.09 З 6 н/о н/о -6.0 -8.2 84 -14 -14 1008.7 1002.1 -6.5 +4.0
15 19.09 З 9 н/о н/о -4.1 -6.6 83 -13 -13 1008.8 1002.2
18 19.09 З 10 н/о н/о -2.1 -7.4 67 -11 -11 1008.4 1001.8 -6.5 -1.9
21 19.09 З 9 н/о н/о -0.7 -7.2 61 -8 -8 1008.3 1001.8
00 20.09 ЮЗ 8 н/о н/о -1.9 -4.6 82 -10 -10 1008.2 1001.6 -6.5 -0.2
03 20.09 ЮЗ 5 н/о н/о -3.4 -5.6 85 -10 -10 1008.2 1001.6
06 20.09 ЮЗ 6 н/о н/о -2.9 -4.3 90 -10 -10 1007.0 1000.5 -6.5 -0.2 20
09 20.09 З 5 н/о н/о -3.6 -5.3 88 -10 -10 1006.0 999.5
12 20.09 З 4 н/о {осадки} н/о -4.4 -6.2 87 -10 -10 1005.7 999.2 -5.3 -0.2 0.2
15 20.09 ЮЗ 3 н/о н/о -4.1 -7.3 78 -9 -9 1005.5 999.0
18 20.09 Ю 4 н/о н/о -2.3 -5.8 77 -8 -8 1005.0 998.5 -5.3 -2.1
21 20.09 СВ 7 н/о {осадки} н/о -2.1 -3.9 87 -10 -10 1004.7 998.2 0.8
00 21.09 СВ 10 н/о {осадки} н/о -2.6 -4.1 89 -12 -12 1005.9 999.4 -5.3 -2.0 2
03 21.09 С 8 н/о {осадки} н/о -3.6 -5.4 87 -12 -12 1007.9 1001.3 0.2
06 21.09 С 8 н/о {осадки} н/о -4.2 -6.0 87 -13 -13 1009.5 1002.9 -5.3 -2.0 0.2 23
09 21.09 С 9 н/о н/о -3.9 -5.9 86 -13 -13 1010.8 1004.2
12 21.09 С 8 н/о н/о -4.5 -7.0 83 -13 -13 1012.5 1005.9 -5.1 -2.0
15 21.09 С 11 н/о н/о -3.5 -6.1 82 -13 -13 1013.8 1007.2
18 21.09 С 10 н/о н/о -2.6 -7.4 70 -11 -11 1014.7 1008.1 -5.1 -2.3
21 21.09 С 10 н/о н/о -1.9 -6.9 69 -10 -10 1014.8 1008.2
00 22.09 СЗ 5 н/о н/о -2.8 -5.0 85 -9 -9 1014.9 1008.3 -5.1 -1.6
03 22.09 С 8 н/о н/о -2.9 -6.2 78 -11 -11 1014.9 1008.3
06 22.09 С 8 н/о н/о -2.4 -4.6 85 -11 -11 1014.7 1008.1 -5.1 -1.6 16
09 22.09 С 11 н/о н/о -1.9 -4.7 81 -11 -11 1015.5 1008.9
12 22.09 С 11 н/о н/о -2.9 -6.0 79 -12 -12 1016.8 1010.2 -4.7 -1.6
15 22.09 С 10 н/о н/о -3.1 -6.6 77 -12 -12 1017.5 1010.9
18 22.09 СЗ 7 н/о н/о -1.3 -5.2 75 -9 -9 1017.8 1011.2 -4.7 -1.3
21 22.09 З 7 н/о н/о -0.7 -6.1 67 -7 -7 1018.0 1011.4
00 23.09 З 3 н/о н/о -1.7 -4.4 82 -7 -7 1018.1 1011.5 -4.2 -0.5
03 23.09 З 3 н/о н/о -1.2 -3.3 86 -6 -6 1017.0 1010.4
06 23.09 З 5 н/о н/о -0.7 -3.1 84 -7 -7 1016.0 1009.4 -4.2 -0.4 12
09 23.09 З 4 н/о н/о 0.0 -2.7 82 -5 -5 1015.1 1008.5
12 23.09 ЮЗ 5 н/о н/о -1.9 -4.0 86 -8 -8 1014.2 1007.6 -2.0 -0.4
15 23.09 Ю 4 н/о н/о -1.5 -4.1 82 -7 -7 1012.4 1005.8
18 23.09 ЮЗ 6 н/о н/о +1.8 -2.4 74 -4 -4 1010.8 1004.3 -2.2 +1.8
21 23.09 ЮЗ 5 н/о н/о +4.0 -0.6 72 -1 -1 1009.5 1003.0
00 24.09 ЮЗ 5 н/о н/о +2.7 -1.3 75 -2 -2 1008.4 1001.9 -2.2 +4.4
03 24.09 З 3 н/о н/о +1.3 -1.5 82 -3 -3 1008.3 1001.8
06 24.09 Ю 2 н/о н/о +0.2 -2.1 85 -3 -3 1008.1 1001.6 -2.2 +4.4 23
09 24.09 ЮЗ 2 н/о н/о -0.4 -3.0 83 -4 -4 1007.5 1001.0
12 24.09 ЮЗ 4 н/о н/о -1.4 -3.7 84 -7 -7 1007.2 1000.7 -1.5 +4.4
15 24.09 ЮЗ 3 н/о н/о +1.0 -1.5 83 -3 -3 1007.2 1000.7
18 24.09 З 4 н/о н/о +2.8 -1.7 72 -1 -1 1007.5 1001.0 -1.8 +3.1
21 24.09 СЗ 4 н/о н/о +1.6 -1.6 79 -3 -3 1008.3 1001.8
00 25.09 СЗ 6 н/о н/о -0.3 -3.7 78 -7 -7 1009.9 1003.4 -1.8 +3.1
03 25.09 СЗ 4 н/о н/о -0.8 -3.8 80 -6 -6 1010.8 1004.3
06 25.09 СЗ 2 н/о н/о -1.0 -4.9 75 -4 -4 1011.4 1004.9 -1.8 +3.1
09 25.09 С 7 н/о н/о -1.8 -5.0 79 -9 -9 1011.9 1005.4
12 25.09 СЗ 4 н/о н/о -2.3 -5.7 77 -8 -8 1012.8 1006.2 -2.9 +3.1
15 25.09 СЗ 7 н/о н/о -1.5 -3.9 84 -9 -9 1012.6 1006.0
18 25.09 С 4 н/о н/о -0.7 -5.8 68 -6 -6 1012.6 1006.1 -2.9 -0.6
21 25.09 СЗ 5 н/о н/о -1.8 -5.9 74 -8 -8 1012.7 1006.1
00 26.09 СЗ 2 н/о н/о -2.0 -6.1 73 -5 -5 1013.0 1006.4 -2.9 -0.6

 

Местоположение метеостанции Baker Lake Climate (Канада): широта 64.32 долгота -96.00 высота над уровнем моря 51 м.

В архиве по умолчанию представлена погода в Baker Lake Climate за последнюю неделю. Архивные данные за месяц целиком и за предыдущие месяцы, начиная с января 2011 года, Вы можете получить, выбрав интересующий диапазон дат из раскрывающегося списка и нажав кнопку "Ввод!".


*Определитесь, кто Вы:
робот инопланетянин человек

Внимание! Время в таблицах - всемирное. Для получения местного времени необходимо прибавить поправку, которая в Baker Lake Climate равна -6 ч.

Смотрите также архив погоды в соседних городах и на ближайших метеорологических станциях:

Погода в Baker Lake Airport (Канада) (4 км)
Погода в Back River MAPS (Канада) (197 км)
Погода в Rankin Inlet (Канада) (255 км)
Погода в Dubawnt Lake (Канада) (305 км)
Погода в Robertson Lake (Канада) (316 км)
Погода в Wager Bay (Канада) (353 км)
Погода в Arviat Climate (Канада) (372 км)
Погода в Arviat (Канада) (372 км)
Погода в Arviat Airport (Канада) (372 км)
Погода в Hanbury River ARS (Канада) (454 км)

Пояснения к столбцам:

Ветер - указаны скорость ветра в м/с - средняя за 10 мин, порывы в срок и между сроками (в фигурных скобках) и направление, откуда дует ветер: С - северный, СВ - северо-восточный, В - восточный, ЮВ - юго-восточный, Ю - южный, ЮЗ - юго-западный, З - западный, СЗ - северо-западный.
Видимость - горизонтальная дальность видимости в метрах или километрах. При видимости от 1 до 10 км при отсутствии осадков обычно наблюдается дымка, при ухудшении видимости до 1 км и менее - туман. В сухую погоду видимость может ухудшаться дымом, пылью или мглою.
Явления - указаны атмосферные явления, наблюдавшиеся в срок или в последний час перед сроком; фигурными скобками обозначены явления, наблюдавшиеся между сроками (за 1-3 часа до срока); квадратными скобками обозначены град или гололедные отложения с указанием их диаметра в мм.
Облачность - указаны через наклонную черту общая и нижняя облачность в баллах и высота нижней границы облаков в метрах; квадратными скобками обозначены формы облаков: Ci - перистые, Cs - перисто-слоистые, Cc - перисто-кучевые, Ac - высококучевые, As - высокослоистые, Sc - слоисто-кучевые, Ns - слоисто-дождевые, Cu - кучевые, Cb - кучево-дождевые. Подробнее классификацию облаков см. в Атласе облаков (PDF).
T - Температура воздуха - температура, измеренная на высоте 2 м над землей.
Td - Температура точки росы - температура, при понижении до которой содержащийся в воздухе водяной пар достигнет насыщения.
f - Относительная влажность воздуха - влажноcть воздуха, измеренная на высоте 2 м над землей.
Te - Эффективная температура - температура, которую ощущает одетый по сезону человек в тени. Характеристика душности погоды. При расчете учитывается влияние влажности воздуха и скорости ветра на теплоощущения человека.
Tes - Эффективная температура на солнце - температура, которую ощущает человек, с поправкой на солнечный нагрев. Характеристика знойности погоды. Зависит от высоты солнца над горизонтом, облачности и скорости ветра. Ночью, в пасмурную погоду, а также при ветре 12 м/с и более поправка равна нулю.
P - Атмосферное давление - приведенное к уровню моря атмосферное давление.
Po - Атмосферное давление - измеренное на уровне метеостанции атмосферное давление.
Tmin - Минимальная температура - минимум температуры воздуха на высоте 2 м над землей.
Tmax - Максимальная температура - максимум температуры воздуха на высоте 2 м над землей.
R - Количество осадков - Количество выпавших осадков за период времени, мм. При наведении курсора мыши на число - период времени, за который выпало указанное количество осадков.
R24 - Количество осадков - Количество выпавших осадков за 24 часа, мм.
S - Снежный покров - Высота снежного покрова, см. При наведении курсора мыши на число - состояние снежного покрова и степень покрытия местности в баллах.